When you browse on this site, cookies collect data to enhance your experience and personalize the content and advertising you see.
Visit our Privacy Policy to learn more. By continuing to use the site, you agree to this use of cookies and data.
  • In Austria
  • List of Countries
  • For 7 days
  • Water Temperature
  • Weather Map
  • News
  • Weather Widgets
  • user-avatar
    Login

    Hourly Weather Tarija

    Today, 29 January, Wednesday

    Time Temperature Precipitation Wind Pressure Humidity
    00:00 +18°C° 0.1 mm 1 mps 595 mmHg 89%
    01:00 +18°C° 0.1 mm 1 mps 594 mmHg 89%
    02:00 +16°C° 0 mm 1 mps 594 mmHg 89%
    03:00 +16°C° 0 mm 1 mps 594 mmHg 89%
    04:00 +16°C° 0 mm 1 mps 594 mmHg 88%
    05:00 +16°C° 0 mm 1 mps 594 mmHg 88%
    06:00 +18°C° 0 mm 1 mps 594 mmHg 81%
    07:00 +20°C° 0 mm 1 mps 595 mmHg 74%
    08:00 +21°C° 0 mm 1 mps 596 mmHg 67%
    09:00 +23°C° 0 mm 1 mps 597 mmHg 60%
    10:00 +25°C° 0 mm 2 mps 597 mmHg 53%
    11:00 +27°C° 0 mm 2 mps 598 mmHg 46%
    12:00 +27°C° 0.1 mm 2 mps 598 mmHg 44%
    13:00 +28°C° 0.1 mm 3 mps 597 mmHg 43%
    14:00 +29°C° 0.1 mm 4 mps 597 mmHg 41%
    15:00 +27°C° 1.2 mm 3 mps 596 mmHg 51%
    16:00 +26°C° 1.2 mm 3 mps 595 mmHg 60%
    17:00 +24°C° 1.2 mm 2 mps 594 mmHg 70%
    18:00 +23°C° 0.5 mm 2 mps 594 mmHg 76%
    19:00 +20°C° 0.5 mm 2 mps 594 mmHg 82%
    20:00 +20°C° 0.5 mm 1 mps 594 mmHg 88%
    21:00 +20°C° 0.4 mm 1 mps 595 mmHg 88%
    22:00 +19°C° 0.4 mm 1 mps 596 mmHg 88%
    23:00 +18°C° 0.4 mm 2 mps 596 mmHg 88%

    Tomorrow, 30 January, Thursday

    Time Temperature Precipitation Wind Pressure Humidity
    00:00 +17°C° 0.1 mm 2 mps 596 mmHg 90%
    01:00 +17°C° 0.1 mm 2 mps 596 mmHg 91%
    02:00 +17°C° 0.1 mm 2 mps 596 mmHg 93%
    03:00 +17°C° 0.1 mm 2 mps 596 mmHg 93%
    04:00 +17°C° 0.1 mm 2 mps 596 mmHg 93%
    05:00 +18°C° 0.1 mm 1 mps 597 mmHg 94%
    06:00 +18°C° 0.2 mm 1 mps 597 mmHg 93%
    07:00 +17°C° 0.2 mm 2 mps 597 mmHg 93%
    08:00 +17°C° 0.2 mm 2 mps 598 mmHg 93%
    09:00 +17°C° 0.4 mm 2 mps 598 mmHg 91%
    10:00 +17°C° 0.4 mm 2 mps 598 mmHg 90%
    11:00 +17°C° 0.4 mm 2 mps 598 mmHg 88%
    12:00 +17°C° 0.2 mm 2 mps 598 mmHg 87%
    13:00 +17°C° 0.2 mm 2 mps 597 mmHg 87%
    14:00 +17°C° 0.2 mm 2 mps 597 mmHg 86%
    15:00 +17°C° 0.1 mm 2 mps 597 mmHg 87%
    16:00 +17°C° 0.1 mm 2 mps 596 mmHg 88%
    17:00 +16°C° 0.1 mm 2 mps 596 mmHg 89%
    18:00 +16°C° 0.1 mm 2 mps 596 mmHg 90%
    19:00 +15°C° 0.1 mm 2 mps 597 mmHg 91%
    20:00 +15°C° 0.1 mm 1 mps 597 mmHg 92%
    21:00 +15°C° 0 mm 1 mps 597 mmHg 92%
    22:00 +15°C° 0 mm 1 mps 597 mmHg 93%
    23:00 +14°C° 0 mm 1 mps 598 mmHg 93%

    Day after tomorrow, 31 January, Friday

    Time Temperature Precipitation Wind Pressure Humidity
    00:00 +15°C° 0 mm 1 mps 597 mmHg 91%
    01:00 +15°C° 0 mm 1 mps 597 mmHg 90%
    02:00 +14°C° 0 mm 0 mps 597 mmHg 89%
    03:00 +13°C° 0 mm 0 mps 597 mmHg 90%
    04:00 +13°C° 0 mm 0 mps 596 mmHg 90%
    05:00 +13°C° 0 mm 0 mps 596 mmHg 91%
    06:00 +14°C° 0 mm 0 mps 597 mmHg 87%
    07:00 +15°C° 0 mm 0 mps 598 mmHg 83%
    08:00 +18°C° 0 mm 1 mps 598 mmHg 79%
    09:00 +19°C° 0 mm 1 mps 599 mmHg 75%
    10:00 +20°C° 0 mm 1 mps 599 mmHg 71%
    11:00 +21°C° 0 mm 2 mps 599 mmHg 67%
    12:00 +21°C° 0.1 mm 2 mps 599 mmHg 67%
    13:00 +21°C° 0.1 mm 3 mps 598 mmHg 68%
    14:00 +21°C° 0.1 mm 3 mps 597 mmHg 68%
    15:00 +20°C° 0 mm 3 mps 597 mmHg 71%
    16:00 +20°C° 0 mm 2 mps 596 mmHg 73%
    17:00 +19°C° 0 mm 2 mps 596 mmHg 75%
    18:00 +20°C° 0.1 mm 1 mps 596 mmHg 78%
    19:00 +19°C° 0.1 mm 1 mps 597 mmHg 80%
    20:00 +19°C° 0.1 mm 1 mps 597 mmHg 83%
    21:00 +18°C° 0 mm 1 mps 597 mmHg 84%
    22:00 +18°C° 0 mm 1 mps 598 mmHg 85%
    23:00 +16°C° 0 mm 0 mps 598 mmHg 87%

    1 February, Saturday

    Time Temperature Precipitation Wind Pressure Humidity
    00:00 +15°C° 0 mm 0 mps 597 mmHg 87%
    01:00 +16°C° 0 mm 1 mps 597 mmHg 88%
    02:00 +15°C° 0 mm 1 mps 596 mmHg 89%
    03:00 +15°C° 0 mm 1 mps 596 mmHg 89%
    04:00 +15°C° 0 mm 1 mps 596 mmHg 89%
    05:00 +15°C° 0 mm 1 mps 596 mmHg 89%
    06:00 +16°C° 0 mm 1 mps 597 mmHg 84%
    07:00 +18°C° 0 mm 1 mps 598 mmHg 78%
    08:00 +18°C° 0 mm 0 mps 598 mmHg 73%
    09:00 +21°C° 0 mm 1 mps 599 mmHg 68%
    10:00 +23°C° 0 mm 1 mps 599 mmHg 64%
    11:00 +24°C° 0 mm 2 mps 599 mmHg 59%
    12:00 +24°C° 0 mm 2 mps 598 mmHg 60%
    13:00 +24°C° 0 mm 3 mps 598 mmHg 62%
    14:00 +24°C° 0 mm 3 mps 597 mmHg 63%
    15:00 +24°C° 0.1 mm 3 mps 596 mmHg 66%
    16:00 +24°C° 0.1 mm 2 mps 596 mmHg 68%
    17:00 +23°C° 0.1 mm 2 mps 595 mmHg 71%
    18:00 +21°C° 0.1 mm 2 mps 595 mmHg 76%
    19:00 +20°C° 0.1 mm 2 mps 596 mmHg 81%
    20:00 +19°C° 0.1 mm 2 mps 596 mmHg 86%
    21:00 +20°C° 0.1 mm 1 mps 596 mmHg 87%
    22:00 +20°C° 0.1 mm 1 mps 596 mmHg 88%
    23:00 +19°C° 0.1 mm 1 mps 597 mmHg 90%

    2 February, Sunday

    Time Temperature Precipitation Wind Pressure Humidity
    00:00 +19°C° 0 mm 1 mps 596 mmHg 90%
    01:00 +19°C° 0 mm 1 mps 596 mmHg 91%
    02:00 +16°C° 0 mm 0 mps 595 mmHg 91%
    03:00 +16°C° 0 mm 0 mps 595 mmHg 91%
    04:00 +16°C° 0 mm 0 mps 595 mmHg 91%
    05:00 +16°C° 0 mm 0 mps 595 mmHg 90%
    06:00 +17°C° 0 mm 0 mps 596 mmHg 86%
    07:00 +18°C° 0 mm 0 mps 597 mmHg 82%
    08:00 +19°C° 0 mm 0 mps 598 mmHg 78%
    09:00 +22°C° 0.1 mm 1 mps 598 mmHg 74%
    10:00 +23°C° 0.1 mm 1 mps 598 mmHg 71%
    11:00 +24°C° 0.1 mm 2 mps 598 mmHg 67%
    12:00 +24°C° 1.1 mm 2 mps 598 mmHg 68%
    13:00 +25°C° 1.1 mm 2 mps 597 mmHg 69%
    14:00 +25°C° 1.1 mm 2 mps 596 mmHg 70%
    15:00 +24°C° 0.8 mm 2 mps 596 mmHg 71%
    16:00 +24°C° 0.8 mm 2 mps 596 mmHg 72%
    17:00 +24°C° 0.8 mm 2 mps 595 mmHg 73%
    18:00 +23°C° 0.2 mm 2 mps 595 mmHg 78%
    19:00 +22°C° 0.2 mm 1 mps 596 mmHg 83%
    20:00 +21°C° 0.2 mm 1 mps 596 mmHg 88%
    21:00 +21°C° 0.1 mm 1 mps 596 mmHg 88%
    22:00 +21°C° 0.1 mm 1 mps 597 mmHg 88%
    23:00 +20°C° 0.1 mm 1 mps 597 mmHg 88%

    3 February, Monday

    Time Temperature Precipitation Wind Pressure Humidity
    00:00 +18°C° 0.1 mm 0 mps 597 mmHg 89%
    01:00 +18°C° 0.1 mm 0 mps 597 mmHg 90%
    02:00 +17°C° 0.1 mm 0 mps 596 mmHg 91%
    03:00 +17°C° 0.1 mm 0 mps 596 mmHg 91%
    04:00 +17°C° 0.1 mm 0 mps 596 mmHg 92%
    05:00 +16°C° 0.1 mm 0 mps 596 mmHg 92%
    06:00 +17°C° 0.1 mm 0 mps 596 mmHg 88%
    07:00 +19°C° 0.1 mm 0 mps 597 mmHg 83%
    08:00 +20°C° 0.1 mm 0 mps 598 mmHg 78%
    09:00 +23°C° 1.2 mm 1 mps 598 mmHg 74%
    10:00 +24°C° 1.2 mm 1 mps 598 mmHg 70%
    11:00 +25°C° 1.2 mm 2 mps 599 mmHg 66%
    12:00 +26°C° 2.2 mm 2 mps 598 mmHg 66%
    13:00 +26°C° 2.2 mm 2 mps 597 mmHg 66%
    14:00 +26°C° 2.2 mm 3 mps 597 mmHg 67%
    15:00 +25°C° 1.3 mm 3 mps 596 mmHg 70%
    16:00 +25°C° 1.3 mm 3 mps 596 mmHg 73%
    17:00 +24°C° 1.3 mm 3 mps 595 mmHg 76%
    18:00 +23°C° 1 mm 2 mps 595 mmHg 81%
    19:00 +21°C° 1 mm 2 mps 595 mmHg 85%
    20:00 +21°C° 1 mm 1 mps 595 mmHg 90%
    21:00 +21°C° 0.1 mm 1 mps 596 mmHg 90%
    22:00 +20°C° 0.1 mm 1 mps 596 mmHg 90%
    23:00 +20°C° 0.1 mm 1 mps 596 mmHg 90%
    Show more